Location: Newark
(32.2500°S, 148.6000°E)
Time: 16:10:15
(UTC+00:00)

N. Korean satellite - Visible Passes

Search period start: 15 October 2019 00:00
Search period end: 25 October 2019 00:00
Orbit: 455 x 508 km, 97.2° (Epoch: 14 October)

Date Brightness Start Highest point End Pass type
(mag) Time Alt. Az. Time Alt. Az. Time Alt. Az.
15 Oct 10.4 18:19:39 10° E 18:21:21 13° ESE 18:23:04 10° SE visible
16 Oct 10.3 08:56:45 10° SW 08:58:30 13° WSW 09:00:14 10° W visible
18 Oct 9.8 18:35:51 10° ENE 18:38:43 21° ESE 18:41:37 10° SSE visible
19 Oct 10.8 18:13:18 10° ESE 18:13:40 10° ESE 18:14:02 10° ESE visible
20 Oct 10.0 08:48:30 10° SSW 08:50:47 16° WSW 08:53:00 10° WNW visible
22 Oct 10.1 18:28:30 10° ENE 18:30:59 17° ESE 18:33:28 10° SSE visible
